This demonstration page uses our WeatherBlox Daily Observations layout. Learn more.

Left ArrowRight Arrow

53.62937, 11.41316

Hourly Observations for April 29, 2015

Temp ( °F °C ) Dew Point ( °F °C ) Humidity (%) Winds ( mph kmh ) Pressure ( in mb ) Visibility ( mi km ) Precip ( " mm )
6:20 am 06:20 Mostly Sunny 34 1 32 0 93 93 WSW 8 13 30.09 1019 7 11 N/A
6:50 am 06:50 Mostly Sunny 34 1 32 0 93 93 WSW 9 15 30.09 1019 7 11 N/A
7:20 am 07:20 Mostly Sunny 37 3 34 1 87 87 WSW 8 13 30.09 1019 7 11 N/A
7:50 am 07:50 Mostly Sunny 39 4 34 1 81 81 WSW 9 15 30.12 1020 7 11 N/A
8:20 am 08:20 Mostly Sunny 41 5 36 2 81 81 WSW 12 19 30.12 1020 7 11 N/A
8:50 am 08:50 Mostly Sunny 43 6 36 2 76 76 WSW 10 17 30.12 1020 7 11 N/A
9:20 am 09:20 Mostly Sunny 45 7 36 2 71 71 WSW 10 17 30.12 1020 7 11 N/A
9:50 am 09:50 Mostly Sunny 48 9 37 3 66 66 SW 10 17 30.12 1020 7 11 N/A
10:20 am 10:20 Mostly Sunny 48 9 32 0 54 54 SW 13 20 30.12 1020 7 11 N/A
10:50 am 10:50 Mostly Sunny 50 10 34 1 54 54 SW 14 22 30.12 1020 7 11 N/A
11:20 am 11:20 Mostly Sunny 52 11 34 1 50 50 SW 14 22 30.12 1020 7 11 N/A
11:50 am 11:50 Mostly Sunny 52 11 32 0 47 47 WSW 10 17 30.09 1019 30 48 N/A
12:20 pm 12:20 Mostly Sunny 54 12 32 0 44 44 SW 12 19 30.09 1019 7 11 N/A
12:50 pm 12:50 Mostly Sunny 54 12 30 -1 41 41 W 7 11 30.09 1019 7 11 N/A
12:55 pm 12:55 Mostly Sunny 54 12 30 -1 41 41 SSW 12 19 30.09 1019 7 11 N/A
1:20 pm 13:20 Mostly Sunny 54 12 30 -1 41 41 SSW 10 17 30.09 1019 7 11 N/A
1:50 pm 13:50 Mostly Sunny 55 13 32 0 41 41 SSW 13 20 30.09 1019 7 11 N/A
2:20 pm 14:20 Mostly Sunny 57 14 32 0 39 39 S 12 19 30.06 1018 7 11 N/A
2:50 pm 14:50 Mostly Sunny 57 14 32 0 39 39 S 12 19 30.06 1018 7 11 N/A
3:20 pm 15:20 Mostly Sunny 55 13 28 -2 36 36 S 10 17 30.06 1018 7 11 N/A
3:50 pm 15:50 Mostly Sunny 55 13 28 -2 36 36 S 13 20 30.06 1018 7 11 N/A
4:20 pm 16:20 Mostly Sunny 57 14 30 -1 36 36 S 10 17 30.03 1017 7 11 N/A
4:50 pm 16:50 Mostly Sunny 55 13 27 -3 33 33 SSE 13 20 30.03 1017 7 11 N/A
5:20 pm 17:20 Mostly Sunny 55 13 30 -1 38 38 SSE 10 17 30.03 1017 7 11 N/A
5:50 pm 17:50 Mostly Sunny 55 13 30 -1 38 38 SSE 13 20 30.03 1017 7 11 N/A
6:20 pm 18:20 Mostly Sunny 55 13 28 -2 36 36 S 12 19 30.03 1017 7 11 N/A
6:50 pm 18:50 Mostly Sunny 55 13 28 -2 36 36 S 10 17 30.00 1016 7 11 N/A

Powered by AerisWeather